Location: ?????
(32.7281°N, 34.9563°E)
Time: 17:16:06
(UTC+00:00)

GPS 2-04 Rocket1 - Pass Details

Date: 29 October 2020
Orbit: 417 x 546 km, 35.6° (Epoch: 30 November)

Event Time Altitude Azimuth Distance (km) Brightness Sun altitude
Rises 15:39:53 0° 253° (WSW) 2,594 8.4 -10.7°
Reaches altitude 10° 15:42:04 10° 253° (WSW) 1,732 6.9 -11.1°
Maximum altitude 15:46:04 89° 172° (S) 531 2.7 -12.0°
Enters shadow 15:48:55 19° 74° (ENE) 1,293 4.1 -12.6°
